Cleveland Burke, OH

5:34 AM EDT on March 29, 2017 (GMT -0400)
Burke Lakefront

Weather History for KBKL - October, 2014

Change the Weather History Date:

Wednesday, October 15, 2014

  Actual Average Record
Temperature  
Mean Temperature 60 °F -  
Max Temperature 64 °F 60 °F 77 °F (2016)
Min Temperature 57 °F 47 °F 39 °F (2006)
Degree Days  
Heating Degree Days 4    
Growing Degree Days 10 (Base 50)    
Moisture  
Dew Point 55 °F    
Average Humidity 84    
Maximum Humidity 93    
Minimum Humidity 68    
Precipitation  
Precipitation 0.44 in - - ()
Sea Level Pressure  
Sea Level Pressure 29.78 in    
Wind  
Wind Speed 9 mph (SE)    
Max Wind Speed 14 mph    
Max Gust Speed -    
Visibility 10 miles    
Events Rain    
Averages and records for this station are not official NWS values.
T = Trace of Precipitation, MM = Missing Value Source: NWS Daily Summary

Daily Weather History Graph

Daily Weather History Graph

Search for Another Location

Airport or City:

Trip Planner

Search our weather history database for the weather conditions in past years. The results will help you decide how hot, cold, wet, or windy it might be!

Date:

Astronomy

Oct. 15, 2014 Rise Set
Actual Time 7:38 AM EDT 6:45 PM EDT
Civil Twilight 7:10 AM EDT 7:13 PM EDT
Nautical Twilight 6:38 AM EDT 7:45 PM EDT
Astronomical Twilight 6:06 AM EDT 8:17 PM EDT
Moon No Moon Rise 2:21 PM EDT (10/15)
Length of Visible Light 12h 02m
Length of Day
11h 06m
Waning Gibbous, 51% of the Moon is Illuminated
Oct 15
Waning Gibbous
Oct 15
Last Quarter
Oct 23
New
Oct 30
First Quarter
Nov 6
Full

Hourly Weather History & Observations

Time (EDT) Temp. Dew Point Humidity Pressure Visibility Wind Dir Wind Speed Gust Speed Precip Events Conditions
12:53 AM 59.0 °F 55.9 °F 90% 29.74 in 9.0 mi SSE 8.1 mph - 0.11 in Rain Rain
1:53 AM 59.0 °F 55.9 °F 90% 29.75 in 10.0 mi SSE 10.4 mph - 0.08 in Rain Rain
2:53 AM 59.0 °F 55.9 °F 90% 29.77 in 10.0 mi SSE 12.7 mph - 0.02 in   Mostly Cloudy
3:53 AM 57.9 °F 55.9 °F 93% 29.76 in 10.0 mi SSE 10.4 mph - 0.00 in   Scattered Clouds
4:53 AM 57.9 °F 55.0 °F 90% 29.77 in 10.0 mi SSE 10.4 mph - N/A   Clear
5:53 AM 59.0 °F 55.0 °F 87% 29.80 in 10.0 mi South 13.8 mph - N/A   Partly Cloudy
6:03 AM 59.0 °F 55.9 °F 90% 29.81 in 10.0 mi South 8.1 mph - N/A   Mostly Cloudy
6:10 AM 59.0 °F 55.9 °F 90% 29.81 in 10.0 mi SSE 10.4 mph - N/A   Scattered Clouds
6:53 AM 57.9 °F 55.0 °F 90% 29.80 in 10.0 mi SSE 5.8 mph - N/A   Scattered Clouds
7:53 AM 57.9 °F 55.0 °F 90% 29.81 in 10.0 mi SSE 9.2 mph - N/A   Mostly Cloudy
8:53 AM 59.0 °F 55.0 °F 87% 29.82 in 10.0 mi SSE 8.1 mph - N/A   Scattered Clouds
9:53 AM 61.0 °F 55.9 °F 83% 29.81 in 10.0 mi SSE 10.4 mph - N/A   Mostly Cloudy
10:53 AM 62.1 °F 55.0 °F 78% 29.81 in 10.0 mi South 11.5 mph - N/A   Mostly Cloudy
11:10 AM 63.0 °F 55.0 °F 75% 29.81 in 10.0 mi South 9.2 mph - N/A   Scattered Clouds
11:48 AM 64.4 °F 53.6 °F 68% 29.80 in 10.0 mi South 6.9 mph - N/A   Mostly Cloudy
11:53 AM 64.0 °F 54.0 °F 70% 29.81 in 10.0 mi SSE 8.1 mph - N/A   Mostly Cloudy
12:53 PM 62.1 °F 53.1 °F 72% 29.81 in 10.0 mi South 10.4 mph - 0.00 in   Overcast
1:53 PM 61.0 °F 54.0 °F 78% 29.80 in 10.0 mi Calm Calm - 0.00 in   Overcast
2:53 PM 64.0 °F 55.0 °F 73% 29.76 in 10.0 mi NE 4.6 mph - N/A   Overcast
3:53 PM 62.1 °F 55.0 °F 78% 29.76 in 10.0 mi NNE 6.9 mph - N/A   Mostly Cloudy
4:53 PM 60.1 °F 55.0 °F 83% 29.76 in 10.0 mi NE 10.4 mph - N/A   Overcast
5:53 PM 61.0 °F 55.9 °F 83% 29.76 in 10.0 mi NE 8.1 mph - N/A   Overcast
6:53 PM 60.1 °F 55.0 °F 83% 29.77 in 10.0 mi NE 6.9 mph - N/A   Mostly Cloudy
7:53 PM 60.1 °F 55.0 °F 83% 29.78 in 10.0 mi NE 5.8 mph - N/A   Overcast
8:53 PM 60.1 °F 55.0 °F 83% 29.77 in 10.0 mi ENE 3.5 mph - 0.00 in   Overcast
9:53 PM 57.9 °F 55.0 °F 90% 29.78 in 8.0 mi ENE 5.8 mph - 0.11 in Rain Light Rain
10:53 PM 57.9 °F 55.9 °F 93% 29.77 in 10.0 mi NE 6.9 mph - 0.06 in Rain Light Rain
11:53 PM 57.9 °F 55.9 °F 93% 29.75 in 10.0 mi ENE 11.5 mph - 0.06 in Rain Light Rain